This is the latest recevied weather packets stored in our database for station/object I4GOS-3. If no packets are shown the sender has not sent any weather packets the latest 1 day(s).
| Time | Temp. | Humidity | Pressure | Rain* | Wind** | Luminosity | Snow |
|---|---|---|---|---|---|---|---|
| 1777967228 | 15° C | 73% | 1014.7 hPa | 2.29 mm | 1.34 m/s, 102° | - | - |
| 1777966928 | 15° C | 73% | 1014.8 hPa | 1.52 mm | 0.45 m/s, 101° | - | - |
| 1777966628 | 14.44° C | 73% | 1014.8 hPa | 1.78 mm | 1.34 m/s, 112° | - | - |
| 1777966328 | 14.44° C | 74% | 1014.7 hPa | 1.78 mm | 0.89 m/s, 127° | - | - |
| 1777966027 | 14.44° C | 74% | 1014.7 hPa | 2.03 mm | 3.13 m/s, 95° | - | - |
| 1777965723 | 14.44° C | 74% | 1014.7 hPa | 2.29 mm | 3.58 m/s, 143° | - | - |
| 1777965423 | 14.44° C | 74% | 1014.7 hPa | 2.29 mm | 3.13 m/s, 118° | - | - |
| 1777965123 | 15° C | 74% | 1014.7 hPa | 2.03 mm | 2.68 m/s, 138° | - | - |
| 1777964822 | 15° C | 75% | 1014.5 hPa | 1.02 mm | 1.79 m/s, 104° | - | - |
| 1777964516 | 15.56° C | 74% | 1014.6 hPa | 1.02 mm | 1.34 m/s, 116° | - | - |
| 1777964215 | 15.56° C | 74% | 1014.6 hPa | 1.27 mm | 0 m/s | - | - |
| 1777963915 | 15.56° C | 74% | 1014.5 hPa | 1.27 mm | 0 m/s | - | - |
| 1777963615 | 15.56° C | 74% | 1014.6 hPa | 1.27 mm | 0 m/s | - | - |
| 1777963315 | 15.56° C | 74% | 1014.4 hPa | 0 mm | 0 m/s | - | - |
| 1777963014 | 15.56° C | 74% | 1014.4 hPa | 0 mm | 0 m/s | - | - |
| 1777962714 | 15.56° C | 74% | 1014.4 hPa | 0 mm | 0 m/s | - | - |
| 1777962414 | 15.56° C | 74% | 1014.3 hPa | 0 mm | 0 m/s | - | - |
| 1777962114 | 15.56° C | 74% | 1014.4 hPa | 0 mm | 1.79 m/s, 111° | - | - |
| 1777961814 | 15.56° C | 74% | 1014.4 hPa | 0 mm | 0.89 m/s, 90° | - | - |
| 1777961513 | 15.56° C | 74% | 1014.3 hPa | 0 mm | 0.45 m/s, 108° | - | - |
| 1777961213 | 15° C | 74% | 1014.3 hPa | 0 mm | 2.24 m/s, 91° | - | - |
| 1777960913 | 15° C | 74% | 1014.3 hPa | 0 mm | 2.24 m/s, 110° | - | - |
| 1777960613 | 15° C | 74% | 1014.2 hPa | 0 mm | 1.34 m/s, 95° | - | - |
| 1777960312 | 15° C | 74% | 1014.2 hPa | 0 mm | 0.89 m/s, 105° | - | - |
| 1777960012 | 15° C | 74% | 1014.2 hPa | 0 mm | 1.34 m/s, 111° | - | - |
* Rain latest hour (hover to see other rain measurements)
** Current wind speed in m/s (hover to see current wind gust speed)